Year,Month,Day,Hour,Minute,Value (Times are PST for windspeed in km/hr)
2006,12,16,00,00,1.50
2006,12,16,00,01,2.00
2006,12,16,00,02,2.30
2006,12,16,00,03,3.40
2006,12,16,00,04,3.10
2006,12,16,00,05,1.50
2006,12,16,00,06,0.70
2006,12,16,00,07,1.00
2006,12,16,00,08,0.50
2006,12,16,00,09,0.10
2006,12,16,00,10,0.10
2006,12,16,00,11,0.20
2006,12,16,00,12,0.30
2006,12,16,00,13,0.00
2006,12,16,00,14,0.00
2006,12,16,00,15,0.00
2006,12,16,00,16,0.00
2006,12,16,00,17,0.00
2006,12,16,00,18,0.00
2006,12,16,00,19,0.00
2006,12,16,00,20,0.00
2006,12,16,00,21,0.00
2006,12,16,00,22,0.10
2006,12,16,00,23,0.10
2006,12,16,00,24,1.20
2006,12,16,00,25,2.30
2006,12,16,00,26,2.30
2006,12,16,00,27,1.90
2006,12,16,00,28,3.80
2006,12,16,00,29,2.90
2006,12,16,00,30,1.80
2006,12,16,00,31,2.60
2006,12,16,00,32,1.50
2006,12,16,00,33,1.10
2006,12,16,00,34,1.50
2006,12,16,00,35,0.90
2006,12,16,00,36,0.10
2006,12,16,00,37,1.30
2006,12,16,00,38,0.40
2006,12,16,00,39,0.50
2006,12,16,00,40,1.70
2006,12,16,00,41,1.80
2006,12,16,00,42,2.80
2006,12,16,00,43,1.10
2006,12,16,00,44,2.20
2006,12,16,00,45,0.80
2006,12,16,00,46,1.20
2006,12,16,00,47,1.20
2006,12,16,00,48,1.00
2006,12,16,00,49,1.50
2006,12,16,00,50,1.70
2006,12,16,00,51,0.00
2006,12,16,00,52,0.50
2006,12,16,00,53,0.00
2006,12,16,00,54,0.20
2006,12,16,00,55,0.00
2006,12,16,00,56,1.00
2006,12,16,00,57,1.30
2006,12,16,00,58,1.10
2006,12,16,00,59,1.10
2006,12,16,01,00,1.60
2006,12,16,01,01,0.50
2006,12,16,01,02,1.80
2006,12,16,01,03,3.30
2006,12,16,01,04,3.60
2006,12,16,01,05,2.20
2006,12,16,01,06,3.10
2006,12,16,01,07,2.50
2006,12,16,01,08,2.50
2006,12,16,01,09,2.30
2006,12,16,01,10,2.30
2006,12,16,01,11,1.50
2006,12,16,01,12,0.80
2006,12,16,01,13,1.10
2006,12,16,01,14,1.80
2006,12,16,01,15,1.40
2006,12,16,01,16,0.70
2006,12,16,01,17,0.20
2006,12,16,01,18,0.60
2006,12,16,01,19,1.60
2006,12,16,01,20,0.60
2006,12,16,01,21,0.60
2006,12,16,01,22,0.10
2006,12,16,01,23,0.00
2006,12,16,01,24,0.60
2006,12,16,01,25,0.70
2006,12,16,01,26,1.30
2006,12,16,01,27,0.50
2006,12,16,01,28,0.50
2006,12,16,01,29,0.70
2006,12,16,01,30,1.60
2006,12,16,01,31,1.00
2006,12,16,01,32,1.70
2006,12,16,01,33,0.10
2006,12,16,01,34,1.50
2006,12,16,01,35,1.30
2006,12,16,01,36,0.10
2006,12,16,01,37,0.10
2006,12,16,01,38,0.00
2006,12,16,01,39,0.20
2006,12,16,01,40,0.00
2006,12,16,01,41,0.00
2006,12,16,01,42,1.10
2006,12,16,01,43,1.30
2006,12,16,01,44,0.90
2006,12,16,01,45,0.20
2006,12,16,01,46,0.80
2006,12,16,01,47,0.80
2006,12,16,01,48,0.00
2006,12,16,01,49,0.10
2006,12,16,01,50,0.50
2006,12,16,01,51,0.70
2006,12,16,01,52,0.80
2006,12,16,01,53,0.20
2006,12,16,01,54,0.30
2006,12,16,01,55,1.90
2006,12,16,01,56,2.10
2006,12,16,01,57,1.10
2006,12,16,01,58,1.90
2006,12,16,01,59,2.30
2006,12,16,02,00,2.30
2006,12,16,02,01,1.60
2006,12,16,02,02,1.60
2006,12,16,02,03,0.60
2006,12,16,02,04,0.00
2006,12,16,02,05,1.50
2006,12,16,02,06,0.20
2006,12,16,02,07,0.40
2006,12,16,02,08,0.90
2006,12,16,02,09,0.10
2006,12,16,02,10,0.30
2006,12,16,02,11,0.20
2006,12,16,02,12,1.60
2006,12,16,02,13,0.80
2006,12,16,02,14,0.50
2006,12,16,02,15,1.80
2006,12,16,02,16,2.80
2006,12,16,02,17,2.50
2006,12,16,02,18,0.30
2006,12,16,02,19,1.00
2006,12,16,02,20,0.30
2006,12,16,02,21,0.40
2006,12,16,02,22,1.40
2006,12,16,02,23,1.10
2006,12,16,02,24,0.40
2006,12,16,02,25,0.20
2006,12,16,02,26,0.90
2006,12,16,02,27,0.00
2006,12,16,02,28,0.00
2006,12,16,02,29,0.00
2006,12,16,02,30,0.00
2006,12,16,02,31,0.10
2006,12,16,02,32,0.30
2006,12,16,02,33,0.00
2006,12,16,02,34,0.90
2006,12,16,02,35,3.90
2006,12,16,02,36,1.50
2006,12,16,02,37,0.60
2006,12,16,02,38,0.40
2006,12,16,02,39,0.00
2006,12,16,02,40,0.20
2006,12,16,02,41,0.10
2006,12,16,02,42,0.00
2006,12,16,02,43,0.00
2006,12,16,02,44,0.00
2006,12,16,02,45,2.40
2006,12,16,02,46,2.80
2006,12,16,02,47,0.60
2006,12,16,02,48,1.10
2006,12,16,02,49,0.00
2006,12,16,02,50,0.00
2006,12,16,02,51,0.10
2006,12,16,02,52,0.20
2006,12,16,02,53,0.00
2006,12,16,02,54,0.30
2006,12,16,02,55,0.80
2006,12,16,02,56,1.30
2006,12,16,02,57,0.00
2006,12,16,02,58,0.00
2006,12,16,02,59,0.00
2006,12,16,03,00,0.00
2006,12,16,03,01,0.00
2006,12,16,03,02,0.10
2006,12,16,03,03,2.20
2006,12,16,03,04,1.90
2006,12,16,03,05,1.70
2006,12,16,03,06,1.90
2006,12,16,03,07,0.80
2006,12,16,03,08,0.60
2006,12,16,03,09,1.20
2006,12,16,03,10,0.20
2006,12,16,03,11,0.00
2006,12,16,03,12,0.30
2006,12,16,03,13,1.50
2006,12,16,03,14,1.50
2006,12,16,03,15,0.00
2006,12,16,03,16,0.20
2006,12,16,03,17,0.00
2006,12,16,03,18,0.10
2006,12,16,03,19,0.00
2006,12,16,03,20,0.00
2006,12,16,03,21,0.00
2006,12,16,03,22,0.00
2006,12,16,03,23,0.00
2006,12,16,03,24,0.00
2006,12,16,03,25,0.00
2006,12,16,03,26,0.20
2006,12,16,03,27,1.50
2006,12,16,03,28,2.40
2006,12,16,03,29,3.30
2006,12,16,03,30,1.90
2006,12,16,03,31,1.20
2006,12,16,03,32,1.80
2006,12,16,03,33,1.90
2006,12,16,03,34,1.90
2006,12,16,03,35,2.00
2006,12,16,03,36,2.00
2006,12,16,03,37,0.40
2006,12,16,03,38,0.20
2006,12,16,03,39,0.20
2006,12,16,03,40,1.00
2006,12,16,03,41,0.20
2006,12,16,03,42,0.10
2006,12,16,03,43,1.20
2006,12,16,03,44,0.90
2006,12,16,03,45,1.40
2006,12,16,03,46,0.50
2006,12,16,03,47,1.00
2006,12,16,03,48,1.40
2006,12,16,03,49,1.90
2006,12,16,03,50,2.60
2006,12,16,03,51,1.60
2006,12,16,03,52,0.20
2006,12,16,03,53,0.00
2006,12,16,03,54,0.80
2006,12,16,03,55,0.00
2006,12,16,03,56,0.20
2006,12,16,03,57,1.10
2006,12,16,03,58,0.90
2006,12,16,03,59,0.50
2006,12,16,04,00,0.00
2006,12,16,04,01,0.00
2006,12,16,04,02,0.00
2006,12,16,04,03,0.20
2006,12,16,04,04,0.50
2006,12,16,04,05,0.00
2006,12,16,04,06,0.30
2006,12,16,04,07,1.50
2006,12,16,04,08,1.90
2006,12,16,04,09,1.40
2006,12,16,04,10,0.30
2006,12,16,04,11,0.20
2006,12,16,04,12,0.00
2006,12,16,04,13,0.10
2006,12,16,04,14,1.20
2006,12,16,04,15,0.10
2006,12,16,04,16,0.20
2006,12,16,04,17,0.10
2006,12,16,04,18,0.10
2006,12,16,04,19,0.30
2006,12,16,04,20,0.10
2006,12,16,04,21,1.90
2006,12,16,04,22,1.50
2006,12,16,04,23,3.90
2006,12,16,04,24,3.00
2006,12,16,04,25,2.50
2006,12,16,04,26,2.70
2006,12,16,04,27,0.80
2006,12,16,04,28,0.70
2006,12,16,04,29,3.00
2006,12,16,04,30,0.40
2006,12,16,04,31,0.50
2006,12,16,04,32,1.40
2006,12,16,04,33,0.30
2006,12,16,04,34,1.80
2006,12,16,04,35,2.10
2006,12,16,04,36,3.10
2006,12,16,04,37,5.60
2006,12,16,04,38,2.80
2006,12,16,04,39,3.00
2006,12,16,04,40,6.10
2006,12,16,04,41,5.20
2006,12,16,04,42,2.50
2006,12,16,04,43,6.40
2006,12,16,04,44,3.80
2006,12,16,04,45,1.50
2006,12,16,04,46,3.30
2006,12,16,04,47,0.80
2006,12,16,04,48,0.90
2006,12,16,04,49,2.00
2006,12,16,04,50,2.90
2006,12,16,04,51,0.30
2006,12,16,04,52,1.90
2006,12,16,04,53,0.90
2006,12,16,04,54,0.10
2006,12,16,04,55,0.00
2006,12,16,04,56,0.60
2006,12,16,04,57,1.60
2006,12,16,04,58,0.90
2006,12,16,04,59,0.90
2006,12,16,05,00,2.10
2006,12,16,05,01,2.30
2006,12,16,05,02,2.80
2006,12,16,05,03,1.90
2006,12,16,05,04,3.60
2006,12,16,05,05,1.70
2006,12,16,05,06,4.30
2006,12,16,05,07,1.90
2006,12,16,05,08,0.90
2006,12,16,05,09,3.30
2006,12,16,05,10,2.50
2006,12,16,05,11,1.00
2006,12,16,05,12,1.70
2006,12,16,05,13,3.00
2006,12,16,05,14,0.50
2006,12,16,05,15,2.50
2006,12,16,05,16,4.80
2006,12,16,05,17,4.60
2006,12,16,05,18,5.30
2006,12,16,05,19,2.70
2006,12,16,05,20,3.70
2006,12,16,05,21,2.30
2006,12,16,05,22,4.30
2006,12,16,05,23,3.70
2006,12,16,05,24,4.70
2006,12,16,05,25,8.60
2006,12,16,05,26,5.30
2006,12,16,05,27,6.00
2006,12,16,05,28,6.40
2006,12,16,05,29,5.60
2006,12,16,05,30,3.10
2006,12,16,05,31,2.90
2006,12,16,05,32,0.50
2006,12,16,05,33,2.30
2006,12,16,05,34,4.30
2006,12,16,05,35,4.30
2006,12,16,05,36,6.20
2006,12,16,05,37,8.70
2006,12,16,05,38,7.30
2006,12,16,05,39,4.80
2006,12,16,05,40,2.60
2006,12,16,05,41,0.50
2006,12,16,05,42,0.30
2006,12,16,05,43,0.20
2006,12,16,05,44,0.00
2006,12,16,05,45,0.10
2006,12,16,05,46,0.10
2006,12,16,05,47,0.00
2006,12,16,05,48,0.00
2006,12,16,05,49,0.00
2006,12,16,05,50,0.00
2006,12,16,05,51,0.00
2006,12,16,05,52,0.00
2006,12,16,05,53,2.50
2006,12,16,05,54,1.80
2006,12,16,05,55,0.50
2006,12,16,05,56,1.60
2006,12,16,05,57,1.30
2006,12,16,05,58,1.00
2006,12,16,05,59,0.00
2006,12,16,06,00,0.80
2006,12,16,06,01,1.70
2006,12,16,06,02,2.80
2006,12,16,06,03,3.20
2006,12,16,06,04,2.20
2006,12,16,06,05,0.20
2006,12,16,06,06,0.10
2006,12,16,06,07,1.50
2006,12,16,06,08,0.10
2006,12,16,06,09,1.00
2006,12,16,06,10,1.50
2006,12,16,06,11,3.20
2006,12,16,06,12,1.80
2006,12,16,06,13,3.20
2006,12,16,06,14,0.70
2006,12,16,06,15,0.20
2006,12,16,06,16,0.00
2006,12,16,06,17,0.10
2006,12,16,06,18,2.70
2006,12,16,06,19,4.30
2006,12,16,06,20,4.00
2006,12,16,06,21,0.90
2006,12,16,06,22,0.40
2006,12,16,06,23,1.40
2006,12,16,06,24,1.40
2006,12,16,06,25,0.60
2006,12,16,06,26,0.10
2006,12,16,06,27,1.00
2006,12,16,06,28,0.20
2006,12,16,06,29,2.00
2006,12,16,06,30,0.20
2006,12,16,06,31,1.10
2006,12,16,06,32,0.70
2006,12,16,06,33,0.00
2006,12,16,06,34,0.20
2006,12,16,06,35,1.10
2006,12,16,06,36,1.20
2006,12,16,06,37,0.20
2006,12,16,06,38,0.00
2006,12,16,06,39,0.00
2006,12,16,06,40,0.00
2006,12,16,06,41,0.00
2006,12,16,06,42,0.00
2006,12,16,06,43,1.50
2006,12,16,06,44,1.50
2006,12,16,06,45,0.70
2006,12,16,06,46,0.00
2006,12,16,06,47,0.00
2006,12,16,06,48,0.00
2006,12,16,06,49,0.00
2006,12,16,06,50,0.00
2006,12,16,06,51,0.30
2006,12,16,06,52,1.70
2006,12,16,06,53,0.20
2006,12,16,06,54,0.00
2006,12,16,06,55,0.60
2006,12,16,06,56,2.90
2006,12,16,06,57,0.30
2006,12,16,06,58,1.70
2006,12,16,06,59,0.60
2006,12,16,07,00,1.10
2006,12,16,07,01,1.20
2006,12,16,07,02,0.10
2006,12,16,07,03,0.20
2006,12,16,07,04,0.60
2006,12,16,07,05,0.10
2006,12,16,07,06,0.30
2006,12,16,07,07,1.00
2006,12,16,07,08,0.30
2006,12,16,07,09,0.00
2006,12,16,07,10,0.20
2006,12,16,07,11,0.50
2006,12,16,07,12,1.00
2006,12,16,07,13,1.40
2006,12,16,07,14,1.10
2006,12,16,07,15,1.10
2006,12,16,07,16,1.10
2006,12,16,07,17,0.20
2006,12,16,07,18,2.70
2006,12,16,07,19,0.60
2006,12,16,07,20,0.30
2006,12,16,07,21,1.40
2006,12,16,07,22,3.70
2006,12,16,07,23,2.20
2006,12,16,07,24,3.80
2006,12,16,07,25,3.60
2006,12,16,07,26,0.30
2006,12,16,07,27,0.20
2006,12,16,07,28,0.90
2006,12,16,07,29,0.80
2006,12,16,07,30,0.80
2006,12,16,07,31,0.90
2006,12,16,07,32,1.40
2006,12,16,07,33,1.50
2006,12,16,07,34,0.00
2006,12,16,07,35,0.20
2006,12,16,07,36,3.40
2006,12,16,07,37,5.80
2006,12,16,07,38,6.30
2006,12,16,07,39,5.70
2006,12,16,07,40,4.20
2006,12,16,07,41,6.00
2006,12,16,07,42,5.60
2006,12,16,07,43,8.70
2006,12,16,07,44,6.20
2006,12,16,07,45,3.40
2006,12,16,07,46,5.30
2006,12,16,07,47,4.10
2006,12,16,07,48,4.70
2006,12,16,07,49,4.20
2006,12,16,07,50,5.50
2006,12,16,07,51,2.80
2006,12,16,07,52,3.60
2006,12,16,07,53,4.00
2006,12,16,07,54,3.70
2006,12,16,07,55,5.30
2006,12,16,07,56,5.40
2006,12,16,07,57,5.40
2006,12,16,07,58,5.40
2006,12,16,07,59,4.30
2006,12,16,08,00,2.70
2006,12,16,08,01,2.60
2006,12,16,08,02,2.60
2006,12,16,08,03,6.00
2006,12,16,08,04,3.90
2006,12,16,08,05,3.90
2006,12,16,08,06,4.20
2006,12,16,08,07,3.10
2006,12,16,08,08,1.40
2006,12,16,08,09,4.10
2006,12,16,08,10,4.30
2006,12,16,08,11,5.50
2006,12,16,08,12,4.30
2006,12,16,08,13,4.40
2006,12,16,08,14,2.30
2006,12,16,08,15,1.60
2006,12,16,08,16,1.00
2006,12,16,08,17,1.10
2006,12,16,08,18,0.40
2006,12,16,08,19,0.10
2006,12,16,08,20,0.10
2006,12,16,08,21,0.00
2006,12,16,08,22,0.40
2006,12,16,08,23,4.10
2006,12,16,08,24,2.40
2006,12,16,08,25,4.70
2006,12,16,08,26,2.70
2006,12,16,08,27,2.20
2006,12,16,08,28,2.00
2006,12,16,08,29,1.10
2006,12,16,08,30,1.30
2006,12,16,08,31,2.70
2006,12,16,08,32,2.80
2006,12,16,08,33,4.70
2006,12,16,08,34,2.30
2006,12,16,08,35,2.70
2006,12,16,08,36,3.60
2006,12,16,08,37,3.00
2006,12,16,08,38,2.80
2006,12,16,08,39,4.20
2006,12,16,08,40,2.90
2006,12,16,08,41,2.20
2006,12,16,08,42,1.30
2006,12,16,08,43,2.60
2006,12,16,08,44,6.00
2006,12,16,08,45,5.10
2006,12,16,08,46,2.90
2006,12,16,08,47,3.30
2006,12,16,08,48,1.00
2006,12,16,08,49,1.50
2006,12,16,08,50,0.50
2006,12,16,08,51,3.10
2006,12,16,08,52,3.00
2006,12,16,08,53,2.90
2006,12,16,08,54,2.80
2006,12,16,08,55,2.90
2006,12,16,08,56,2.50
2006,12,16,08,57,2.00
2006,12,16,08,58,2.50
2006,12,16,08,59,1.40
2006,12,16,09,00,0.80
2006,12,16,09,01,4.70
2006,12,16,09,02,3.10
2006,12,16,09,03,2.60
2006,12,16,09,04,2.70
2006,12,16,09,05,0.70
2006,12,16,09,06,1.20
2006,12,16,09,07,1.80
2006,12,16,09,08,1.10
2006,12,16,09,09,0.90
2006,12,16,09,10,0.80
2006,12,16,09,11,1.00
2006,12,16,09,12,0.20
2006,12,16,09,13,0.90
2006,12,16,09,14,1.70
2006,12,16,09,15,4.10
2006,12,16,09,16,2.20
2006,12,16,09,17,3.90
2006,12,16,09,18,6.30
2006,12,16,09,19,3.70
2006,12,16,09,20,4.60
2006,12,16,09,21,4.30
2006,12,16,09,22,1.70
2006,12,16,09,23,1.30
2006,12,16,09,24,1.40
2006,12,16,09,25,1.10
2006,12,16,09,26,3.10
2006,12,16,09,27,5.30
2006,12,16,09,28,5.90
2006,12,16,09,29,2.80
2006,12,16,09,30,4.30
2006,12,16,09,31,4.70
2006,12,16,09,32,4.00
2006,12,16,09,33,4.10
2006,12,16,09,34,5.10
2006,12,16,09,35,3.10
2006,12,16,09,36,4.50
2006,12,16,09,37,6.00
2006,12,16,09,38,3.50
2006,12,16,09,39,3.90
2006,12,16,09,40,2.10
2006,12,16,09,41,2.50
2006,12,16,09,42,4.00
2006,12,16,09,43,4.80
2006,12,16,09,44,5.10
2006,12,16,09,45,4.60
2006,12,16,09,46,2.10
2006,12,16,09,47,4.70
2006,12,16,09,48,3.50
2006,12,16,09,49,1.30
2006,12,16,09,50,1.20
2006,12,16,09,51,1.50
2006,12,16,09,52,1.90
2006,12,16,09,53,1.90
2006,12,16,09,54,1.70
2006,12,16,09,55,0.80
2006,12,16,09,56,2.30
2006,12,16,09,57,3.30
2006,12,16,09,58,1.40
2006,12,16,09,59,2.50
2006,12,16,10,00,4.40
2006,12,16,10,01,3.30
2006,12,16,10,02,0.60
2006,12,16,10,03,0.10
2006,12,16,10,04,0.40
2006,12,16,10,05,4.30
2006,12,16,10,06,4.30
2006,12,16,10,07,3.00
2006,12,16,10,08,1.60
2006,12,16,10,09,3.10
2006,12,16,10,10,2.80
2006,12,16,10,11,1.80
2006,12,16,10,12,1.60
2006,12,16,10,13,4.40
2006,12,16,10,14,2.70
2006,12,16,10,15,2.60
2006,12,16,10,16,1.40
2006,12,16,10,17,3.40
2006,12,16,10,18,2.70
2006,12,16,10,19,3.40
2006,12,16,10,20,2.40
2006,12,16,10,21,3.40
2006,12,16,10,22,1.40
2006,12,16,10,23,1.40
2006,12,16,10,24,2.80
2006,12,16,10,25,1.00
2006,12,16,10,26,2.40
2006,12,16,10,27,3.80
2006,12,16,10,28,6.80
2006,12,16,10,29,3.40
2006,12,16,10,30,2.30
2006,12,16,10,31,0.20
2006,12,16,10,32,0.20
2006,12,16,10,33,1.90
2006,12,16,10,34,0.70
2006,12,16,10,35,0.60
2006,12,16,10,36,1.20
2006,12,16,10,37,2.60
2006,12,16,10,38,5.30
2006,12,16,10,39,3.00
2006,12,16,10,40,3.30
2006,12,16,10,41,3.20
2006,12,16,10,42,2.70
2006,12,16,10,43,5.30
2006,12,16,10,44,4.40
2006,12,16,10,45,5.80
2006,12,16,10,46,3.60
2006,12,16,10,47,3.40
2006,12,16,10,48,3.20
2006,12,16,10,49,1.40
2006,12,16,10,50,1.20
2006,12,16,10,51,2.20
2006,12,16,10,52,2.00
2006,12,16,10,53,2.20
2006,12,16,10,54,0.80
2006,12,16,10,55,1.40
2006,12,16,10,56,2.90
2006,12,16,10,57,3.20
2006,12,16,10,58,4.90
2006,12,16,10,59,5.60
2006,12,16,11,00,3.30
2006,12,16,11,01,3.20
2006,12,16,11,02,3.40
2006,12,16,11,03,2.20
2006,12,16,11,04,3.90
2006,12,16,11,05,3.10
2006,12,16,11,06,4.10
2006,12,16,11,07,3.90
2006,12,16,11,08,3.40
2006,12,16,11,09,1.50
2006,12,16,11,10,2.90
2006,12,16,11,11,4.30
2006,12,16,11,12,3.80
2006,12,16,11,13,5.00
2006,12,16,11,14,4.40
2006,12,16,11,15,2.60
2006,12,16,11,16,3.20
2006,12,16,11,17,2.70
2006,12,16,11,18,5.50
2006,12,16,11,19,3.90
2006,12,16,11,20,4.70
2006,12,16,11,21,2.60
2006,12,16,11,22,2.60
2006,12,16,11,23,4.80
2006,12,16,11,24,1.10
2006,12,16,11,25,2.50
2006,12,16,11,26,4.30
2006,12,16,11,27,2.20
2006,12,16,11,28,6.90
2006,12,16,11,29,4.00
2006,12,16,11,30,3.50
2006,12,16,11,31,1.90
2006,12,16,11,32,1.50
2006,12,16,11,33,6.60
2006,12,16,11,34,5.30
2006,12,16,11,35,4.10
2006,12,16,11,36,2.80
2006,12,16,11,37,5.10
2006,12,16,11,38,3.70
2006,12,16,11,39,4.70
2006,12,16,11,40,2.60
2006,12,16,11,41,4.00
2006,12,16,11,42,5.90
2006,12,16,11,43,6.30
2006,12,16,11,44,5.30
2006,12,16,11,45,5.90
2006,12,16,11,46,3.50
2006,12,16,11,47,4.70
2006,12,16,11,48,4.00
2006,12,16,11,49,5.40
2006,12,16,11,50,7.10
2006,12,16,11,51,5.10
2006,12,16,11,52,7.20
2006,12,16,11,53,3.50
2006,12,16,11,54,4.10
2006,12,16,11,55,4.20
2006,12,16,11,56,3.70
2006,12,16,11,57,3.50
2006,12,16,11,58,2.90
2006,12,16,11,59,3.20
2006,12,16,12,00,2.00
2006,12,16,12,01,3.40
2006,12,16,12,02,6.80
2006,12,16,12,03,3.80
2006,12,16,12,04,5.60
2006,12,16,12,05,5.10
2006,12,16,12,06,5.10
2006,12,16,12,07,4.00
2006,12,16,12,08,3.90
2006,12,16,12,09,1.90
2006,12,16,12,10,3.40
2006,12,16,12,11,4.60
2006,12,16,12,12,6.00
2006,12,16,12,13,4.30
2006,12,16,12,14,2.50
2006,12,16,12,15,3.10
2006,12,16,12,16,2.50
2006,12,16,12,17,2.50
2006,12,16,12,18,2.40
2006,12,16,12,19,2.30
2006,12,16,12,20,4.80
2006,12,16,12,21,3.90
2006,12,16,12,22,3.50
2006,12,16,12,23,2.70
2006,12,16,12,24,1.40
2006,12,16,12,25,3.00
2006,12,16,12,26,7.70
2006,12,16,12,27,4.10
2006,12,16,12,28,4.30
2006,12,16,12,29,4.30
2006,12,16,12,30,7.50
2006,12,16,12,31,8.30
2006,12,16,12,32,7.80
2006,12,16,12,33,4.30
2006,12,16,12,34,2.50
2006,12,16,12,35,1.60
2006,12,16,12,36,1.80
2006,12,16,12,37,3.70
2006,12,16,12,38,4.30
2006,12,16,12,39,4.80
2006,12,16,12,40,5.20
2006,12,16,12,41,8.00
2006,12,16,12,42,6.00
2006,12,16,12,43,3.20
2006,12,16,12,44,5.30
2006,12,16,12,45,5.50
2006,12,16,12,46,5.20
2006,12,16,12,47,4.90
2006,12,16,12,48,4.40
2006,12,16,12,49,4.30
2006,12,16,12,50,6.40
2006,12,16,12,51,5.60
2006,12,16,12,52,3.90
2006,12,16,12,53,2.00
2006,12,16,12,54,5.20
2006,12,16,12,55,2.90
2006,12,16,12,56,1.90
2006,12,16,12,57,6.70
2006,12,16,12,58,5.80
2006,12,16,12,59,6.80
2006,12,16,13,00,7.30
2006,12,16,13,01,3.90
2006,12,16,13,02,5.50
2006,12,16,13,03,4.40
2006,12,16,13,04,4.10
2006,12,16,13,05,2.20
2006,12,16,13,06,9.30
2006,12,16,13,07,8.10
2006,12,16,13,08,5.50
2006,12,16,13,09,10.20
2006,12,16,13,10,4.50
2006,12,16,13,11,5.60
2006,12,16,13,12,4.50
2006,12,16,13,13,6.70
2006,12,16,13,14,5.20
2006,12,16,13,15,2.60
2006,12,16,13,16,6.00
2006,12,16,13,17,7.00
2006,12,16,13,18,6.60
2006,12,16,13,19,6.10
2006,12,16,13,20,2.20
2006,12,16,13,21,0.60
2006,12,16,13,22,2.20
2006,12,16,13,23,3.60
2006,12,16,13,24,3.80
2006,12,16,13,25,5.50
2006,12,16,13,26,4.30
2006,12,16,13,27,6.20
2006,12,16,13,28,6.20
2006,12,16,13,29,4.70
2006,12,16,13,30,3.50
2006,12,16,13,31,3.60
2006,12,16,13,32,2.30
2006,12,16,13,33,3.80
2006,12,16,13,34,4.50
2006,12,16,13,35,4.70
2006,12,16,13,36,5.50
2006,12,16,13,37,5.30
2006,12,16,13,38,5.00
2006,12,16,13,39,6.40
2006,12,16,13,40,4.60
2006,12,16,13,41,3.30
2006,12,16,13,42,1.90
2006,12,16,13,43,6.60
2006,12,16,13,44,6.00
2006,12,16,13,45,5.10
2006,12,16,13,46,4.90
2006,12,16,13,47,6.10
2006,12,16,13,48,3.90
2006,12,16,13,49,4.10
2006,12,16,13,50,5.00
2006,12,16,13,51,3.40
2006,12,16,13,52,3.20
2006,12,16,13,53,1.10
2006,12,16,13,54,1.50
2006,12,16,13,55,0.60
2006,12,16,13,56,3.10
2006,12,16,13,57,1.50
2006,12,16,13,58,2.50
2006,12,16,13,59,1.60
2006,12,16,14,00,0.30
2006,12,16,14,01,2.00
2006,12,16,14,02,4.20
2006,12,16,14,03,1.40
2006,12,16,14,04,1.00
2006,12,16,14,05,0.90
2006,12,16,14,06,0.10
2006,12,16,14,07,0.90
2006,12,16,14,08,0.30
2006,12,16,14,09,0.70
2006,12,16,14,10,0.60
2006,12,16,14,11,1.30
2006,12,16,14,12,1.10
2006,12,16,14,13,2.90
2006,12,16,14,14,1.90
2006,12,16,14,15,4.10
2006,12,16,14,16,3.90
2006,12,16,14,17,1.60
2006,12,16,14,18,3.60
2006,12,16,14,19,3.00
2006,12,16,14,20,0.40
2006,12,16,14,21,1.40
2006,12,16,14,22,2.90
2006,12,16,14,23,3.10
2006,12,16,14,24,2.70
2006,12,16,14,25,2.50
2006,12,16,14,26,2.70
2006,12,16,14,27,4.70
2006,12,16,14,28,3.90
2006,12,16,14,29,3.40
2006,12,16,14,30,2.90
2006,12,16,14,31,3.30
2006,12,16,14,32,7.20
2006,12,16,14,33,6.70
2006,12,16,14,34,5.60
2006,12,16,14,35,4.70
2006,12,16,14,36,4.90
2006,12,16,14,37,3.20
2006,12,16,14,38,2.30
2006,12,16,14,39,0.80
2006,12,16,14,40,0.80
2006,12,16,14,41,3.10
2006,12,16,14,42,2.60
2006,12,16,14,43,2.30
2006,12,16,14,44,1.20
2006,12,16,14,45,1.10
2006,12,16,14,46,2.00
2006,12,16,14,47,3.50
2006,12,16,14,48,7.20
2006,12,16,14,49,6.10
2006,12,16,14,50,6.00
2006,12,16,14,51,6.60
2006,12,16,14,52,6.30
2006,12,16,14,53,6.00
2006,12,16,14,54,3.60
2006,12,16,14,55,3.00
2006,12,16,14,56,2.40
2006,12,16,14,57,5.40
2006,12,16,14,58,4.40
2006,12,16,14,59,3.00
2006,12,16,15,00,3.50
2006,12,16,15,01,4.80
2006,12,16,15,02,6.10
2006,12,16,15,03,5.10
2006,12,16,15,04,3.70
2006,12,16,15,05,1.90
2006,12,16,15,06,2.60
2006,12,16,15,07,2.30
2006,12,16,15,08,4.80
2006,12,16,15,09,5.40
2006,12,16,15,10,3.10
2006,12,16,15,11,4.60
2006,12,16,15,12,3.60
2006,12,16,15,13,4.80
2006,12,16,15,14,3.80
2006,12,16,15,15,1.50
2006,12,16,15,16,3.00
2006,12,16,15,17,2.80
2006,12,16,15,18,0.80
2006,12,16,15,19,2.10
2006,12,16,15,20,1.50
2006,12,16,15,21,2.40
2006,12,16,15,22,2.90
2006,12,16,15,23,3.60
2006,12,16,15,24,3.00
2006,12,16,15,25,2.60
2006,12,16,15,26,2.40
2006,12,16,15,27,4.40
2006,12,16,15,28,6.20
2006,12,16,15,29,4.20
2006,12,16,15,30,6.60
2006,12,16,15,31,6.70
2006,12,16,15,32,4.30
2006,12,16,15,33,1.90
2006,12,16,15,34,1.40
2006,12,16,15,35,2.70
2006,12,16,15,36,3.80
2006,12,16,15,37,4.70
2006,12,16,15,38,5.50
2006,12,16,15,39,5.30
2006,12,16,15,40,4.70
2006,12,16,15,41,3.50
2006,12,16,15,42,3.50
2006,12,16,15,43,4.70
2006,12,16,15,44,1.50
2006,12,16,15,45,3.10
2006,12,16,15,46,3.20
2006,12,16,15,47,5.30
2006,12,16,15,48,4.90
2006,12,16,15,49,1.90
2006,12,16,15,50,3.20
2006,12,16,15,51,2.00
2006,12,16,15,52,0.00
2006,12,16,15,53,1.50
2006,12,16,15,54,2.30
2006,12,16,15,55,5.10
2006,12,16,15,56,4.70
2006,12,16,15,57,4.50
2006,12,16,15,58,3.70
2006,12,16,15,59,3.70
2006,12,16,16,00,3.80
2006,12,16,16,01,5.10
2006,12,16,16,02,3.90
2006,12,16,16,03,5.50
2006,12,16,16,04,5.20
2006,12,16,16,05,4.10
2006,12,16,16,06,5.20
2006,12,16,16,07,4.10
2006,12,16,16,08,3.00
2006,12,16,16,09,2.40
2006,12,16,16,10,3.20
2006,12,16,16,11,2.00
2006,12,16,16,12,3.40
2006,12,16,16,13,2.90
2006,12,16,16,14,2.90
2006,12,16,16,15,3.30
2006,12,16,16,16,3.50
2006,12,16,16,17,2.10
2006,12,16,16,18,3.00
2006,12,16,16,19,3.80
2006,12,16,16,20,4.50
2006,12,16,16,21,4.80
2006,12,16,16,22,4.20
2006,12,16,16,23,2.70
2006,12,16,16,24,3.10
2006,12,16,16,25,2.70
2006,12,16,16,26,2.90
2006,12,16,16,27,4.10
2006,12,16,16,28,5.50
2006,12,16,16,29,5.30
2006,12,16,16,30,5.00
2006,12,16,16,31,6.40
2006,12,16,16,32,6.80
2006,12,16,16,33,5.60
2006,12,16,16,34,5.20
2006,12,16,16,35,4.30
2006,12,16,16,36,4.10
2006,12,16,16,37,5.00
2006,12,16,16,38,5.10
2006,12,16,16,39,5.80
2006,12,16,16,40,5.60
2006,12,16,16,41,4.60
2006,12,16,16,42,5.90
2006,12,16,16,43,6.00
2006,12,16,16,44,4.90
2006,12,16,16,45,1.80
2006,12,16,16,46,3.20
2006,12,16,16,47,3.60
2006,12,16,16,48,0.50
2006,12,16,16,49,2.30
2006,12,16,16,50,2.00
2006,12,16,16,51,2.10
2006,12,16,16,52,1.50
2006,12,16,16,53,0.90
2006,12,16,16,54,1.90
2006,12,16,16,55,1.80
2006,12,16,16,56,2.40
2006,12,16,16,57,2.30
2006,12,16,16,58,2.30
2006,12,16,16,59,3.50
2006,12,16,17,00,4.90
2006,12,16,17,01,5.60
2006,12,16,17,02,4.10
2006,12,16,17,03,4.60
2006,12,16,17,04,4.30
2006,12,16,17,05,5.00
2006,12,16,17,06,4.80
2006,12,16,17,07,1.80
2006,12,16,17,08,3.00
2006,12,16,17,09,3.80
2006,12,16,17,10,3.50
2006,12,16,17,11,3.10
2006,12,16,17,12,4.40
2006,12,16,17,13,3.40
2006,12,16,17,14,3.70
2006,12,16,17,15,2.00
2006,12,16,17,16,3.00
2006,12,16,17,17,3.40
2006,12,16,17,18,3.90
2006,12,16,17,19,3.60
2006,12,16,17,20,2.90
2006,12,16,17,21,4.80
2006,12,16,17,22,4.20
2006,12,16,17,23,2.60
2006,12,16,17,24,5.30
2006,12,16,17,25,5.00
2006,12,16,17,26,4.50
2006,12,16,17,27,4.80
2006,12,16,17,28,5.40
2006,12,16,17,29,4.70
2006,12,16,17,30,4.80
2006,12,16,17,31,6.00
2006,12,16,17,32,6.50
2006,12,16,17,33,5.20
2006,12,16,17,34,5.00
2006,12,16,17,35,7.20
2006,12,16,17,36,6.30
2006,12,16,17,37,7.80
2006,12,16,17,38,6.40
2006,12,16,17,39,5.90
2006,12,16,17,40,6.00
2006,12,16,17,41,6.60
2006,12,16,17,42,6.00
2006,12,16,17,43,5.40
2006,12,16,17,44,4.40
2006,12,16,17,45,1.70
2006,12,16,17,46,1.00
2006,12,16,17,47,1.00
2006,12,16,17,48,3.10
2006,12,16,17,49,2.20
2006,12,16,17,50,4.30
2006,12,16,17,51,4.90
2006,12,16,17,52,6.80
2006,12,16,17,53,6.00
2006,12,16,17,54,6.80
2006,12,16,17,55,8.00
2006,12,16,17,56,7.50
2006,12,16,17,57,7.10
2006,12,16,17,58,6.40
2006,12,16,17,59,6.00
2006,12,16,18,00,6.70
2006,12,16,18,01,5.00
2006,12,16,18,02,4.70
2006,12,16,18,03,5.00
2006,12,16,18,04,2.50
2006,12,16,18,05,2.60
2006,12,16,18,06,2.10